Theta_e
353 354 354 355 355 355 354 353 353 353 353 353 353 353 353 352 351 351 352 352 352 352 352 352 351 351 351 350 349 349 350 351 351 351 350 349 349 347 347 344 339 339 342 344 347 349 349 349 348 345 344 344 343 345 346 344 342 342 344 345 342 341 341 339 338 338 338 338 338 338 338 338 339 338 337 337 337 337 337 337 339 340 341 341 341
354 354 354 355 355 354 354 353 353 353 352 352 353 354 354 353 353 353 353 353 353 352 352 352 351 349 349 348 348 348 349 350 350 350 349 348 348 347 347 345 341 339 340 343 346 348 349 347 346 344 344 345 344 344 346 345 344 343 343 344 344 344 342 341 340 338 338 338 337 337 337 337 338 337 337 336 336 336 335 334 335 337 339 340 340
355 355 354 355 355 354 354 353 353 353 352 352 352 353 354 353 353 353 353 353 352 351 351 350 348 345 346 347 346 346 346 347 347 346 346 346 346 346 346 346 343 340 340 342 345 348 348 347 345 345 345 345 344 344 344 344 344 344 343 343 344 344 344 343 342 341 339 338 337 337 336 336 336 337 337 337 337 336 336 335 334 335 336 337 338
357 356 354 355 354 354 354 353 353 353 352 353 353 353 354 353 353 353 353 353 351 349 348 346 344 343 344 345 344 344 344 344 343 342 342 342 343 344 344 345 345 342 340 341 344 346 347 346 346 346 346 345 344 343 344 345 345 345 345 343 343 344 345 344 344 343 342 341 339 337 337 336 336 336 337 338 338 338 338 336 336 336 336 336 337
358 357 356 355 355 355 354 353 354 354 354 354 354 354 354 353 353 353 352 350 348 345 345 344 342 342 342 342 342 343 343 342 341 341 341 341 341 342 341 342 343 343 342 342 343 345 346 346 346 346 346 344 344 344 345 346 345 345 346 345 345 344 345 345 345 345 344 343 341 339 337 337 337 336 337 337 338 339 339 338 337 337 337 337 337
357 357 357 356 356 356 355 355 355 355 354 355 354 354 353 352 351 350 348 346 344 343 343 342 341 341 341 341 342 342 342 341 341 342 341 341 341 342 341 341 341 342 344 344 343 343 345 346 346 345 345 345 344 345 345 345 345 345 346 346 345 345 345 345 345 345 344 343 342 341 339 338 337 336 336 336 337 337 338 339 338 338 338 338 338
354 355 357 356 355 356 356 356 354 353 354 355 354 353 352 351 348 346 345 343 343 342 342 342 342 342 342 342 342 342 342 342 343 343 342 342 342 343 343 343 341 341 343 344 344 344 344 345 346 345 345 345 345 345 345 345 345 345 345 345 346 346 345 345 345 345 345 344 343 343 341 340 339 337 336 335 336 336 336 338 338 338 338 338 338
352 353 356 356 354 354 356 355 353 353 354 354 353 352 350 348 346 344 344 343 343 342 342 342 342 342 343 343 343 343 343 342 343 343 343 343 343 343 344 345 344 343 342 342 343 345 343 342 344 345 345 345 345 346 346 346 345 345 345 345 347 347 347 345 344 344 345 345 345 344 344 342 341 340 339 337 336 336 336 336 336 337 337 337 337
351 352 354 356 355 354 355 354 353 353 354 353 351 349 347 345 344 344 344 344 344 343 343 343 343 343 344 344 344 344 343 342 343 343 343 344 344 344 344 346 346 344 342 341 341 344 343 341 343 344 345 345 345 345 346 346 347 347 347 347 348 348 348 347 345 343 343 343 344 345 345 345 344 343 342 341 340 338 337 336 336 336 336 336 336
352 352 354 355 355 354 354 354 354 353 353 351 348 346 345 343 344 344 345 345 344 344 344 344 344 344 343 344 345 345 343 342 343 343 343 342 343 344 344 346 346 344 342 341 341 344 345 344 345 345 345 345 346 347 346 346 347 347 347 348 348 347 347 347 345 344 344 344 344 344 343 344 345 344 342 342 342 342 341 339 338 337 337 336 335
353 353 355 356 355 354 354 354 353 352 350 347 345 344 345 345 344 345 345 345 344 344 344 344 344 343 343 343 343 344 343 342 342 342 341 341 343 344 344 345 346 345 343 342 342 343 345 346 347 348 348 347 346 347 347 348 348 347 347 347 347 347 347 347 345 344 344 344 345 344 343 343 344 344 344 343 342 343 343 342 341 340 339 338 336
353 354 356 356 355 354 352 350 349 348 346 345 344 345 345 345 345 345 345 344 343 344 344 343 342 342 342 342 342 343 343 343 342 341 340 341 342 342 342 343 345 346 345 345 344 344 344 345 346 347 349 348 346 345 345 347 346 346 347 346 346 346 346 345 344 345 345 346 346 346 345 344 345 345 345 344 343 343 343 343 343 342 341 340 339
352 352 354 355 354 350 348 346 346 345 346 346 345 345 345 345 344 345 345 343 342 342 342 341 340 341 341 340 342 343 343 342 341 340 339 339 340 340 340 340 341 343 344 345 345 345 345 345 345 345 347 348 348 347 346 346 346 347 347 345 345 345 345 345 345 345 345 346 346 347 346 346 347 347 346 345 344 344 343 343 343 343 343 342 341
353 351 352 353 351 348 346 346 345 346 346 345 344 343 344 344 344 344 343 342 341 340 340 340 339 339 339 339 340 341 342 342 340 339 338 338 338 338 338 339 340 340 341 341 342 342 342 343 345 345 346 347 348 348 348 347 346 346 346 345 346 346 345 345 345 345 345 346 346 346 346 346 347 347 347 346 346 345 344 344 344 344 344 343 343
354 353 352 351 349 347 347 346 346 346 346 344 342 341 342 344 344 343 342 341 341 340 341 341 339 339 339 340 337 337 342 343 340 339 338 337 336 336 337 338 339 339 339 338 338 339 340 341 343 345 346 345 345 346 347 346 343 341 341 342 343 344 345 345 345 345 345 346 346 346 346 346 346 347 347 347 346 346 345 346 346 346 345 344 344
354 354 352 350 348 347 347 347 346 345 345 343 340 340 343 344 343 342 341 340 338 339 341 341 341 340 339 338 336 335 340 341 339 338 337 336 335 334 334 335 336 336 336 336 336 337 338 340 341 343 343 344 344 344 345 345 342 341 340 339 339 340 341 343 344 345 345 346 346 346 346 346 346 346 346 347 347 346 346 346 347 347 346 346 345
354 353 351 349 349 348 347 347 346 346 345 341 339 342 344 342 341 342 341 340 338 338 339 340 341 341 340 339 339 338 338 336 336 339 338 335 334 333 332 332 332 333 334 334 334 335 335 336 338 339 340 340 340 341 342 342 341 343 342 339 337 336 337 339 340 342 344 345 345 346 346 346 346 346 346 346 346 347 347 347 347 347 347 347 347
354 353 350 349 349 349 348 347 346 346 344 341 341 343 343 342 342 341 339 339 340 339 338 339 341 341 341 340 340 339 339 337 337 339 338 335 334 333 332 331 331 331 331 332 332 331 331 332 334 334 334 334 335 335 335 335 336 337 333 331 330 331 333 335 336 339 341 343 344 345 345 345 346 346 346 346 346 347 347 347 347 347 347 347 347
353 352 350 350 349 348 347 347 346 344 342 340 341 341 340 342 341 340 339 338 339 340 338 339 340 340 340 340 340 339 339 339 338 338 338 337 334 333 332 331 330 328 328 328 328 328 328 329 330 331 330 330 331 331 331 330 332 330 323 320 322 322 324 326 328 331 334 337 339 341 342 344 345 346 346 346 346 347 347 347 347 346 347 347 347
353 352 351 350 348 348 347 346 344 342 340 339 340 340 340 342 340 339 339 339 340 340 339 339 338 338 339 339 339 339 338 338 338 338 337 337 335 333 332 330 329 327 326 326 326 326 327 327 327 328 328 329 329 329 329 328 331 331 321 316 318 318 318 320 320 322 324 327 330 334 336 339 342 344 345 346 346 346 346 347 346 347 347 348 348
352 352 350 349 348 348 347 345 343 341 340 339 340 340 341 342 341 341 341 340 340 340 340 340 338 338 339 339 338 338 337 337 337 337 336 336 335 333 332 331 330 329 327 326 327 326 327 327 327 327 327 328 327 327 328 327 329 329 321 316 317 317 317 318 318 318 319 320 321 324 326 328 332 336 340 342 344 345 346 346 346 346 347 347 347
352 351 350 349 348 347 346 344 340 339 340 340 341 341 341 341 341 341 341 340 340 340 340 339 339 339 338 339 338 338 337 337 336 336 336 337 335 333 332 332 331 330 329 327 327 327 327 327 327 327 326 326 327 326 327 327 326 323 318 316 317 317 317 317 317 317 317 318 319 319 320 321 322 324 328 331 335 339 342 345 346 346 346 347 347
351 351 350 349 348 345 344 341 338 339 341 341 340 340 339 340 341 341 341 340 340 339 339 339 339 339 338 338 338 337 337 336 335 334 335 335 335 334 332 331 331 332 332 331 329 328 328 328 328 328 327 327 327 326 326 327 326 322 319 319 318 317 317 317 318 318 317 317 317 317 318 318 319 319 321 322 324 327 332 336 340 343 345 346 346
350 350 350 348 347 345 342 339 338 340 341 340 339 339 338 339 340 340 340 340 339 339 339 339 338 338 337 337 337 336 336 336 335 334 335 334 334 334 333 333 333 332 332 333 332 330 329 328 328 328 327 327 327 328 327 327 328 325 322 322 321 319 318 317 317 318 318 318 317 317 316 316 317 317 318 319 319 320 322 325 328 332 337 340 342
350 348 347 346 345 345 342 340 340 341 341 341 340 340 339 339 340 340 339 339 339 339 339 338 338 338 337 336 336 335 335 335 335 334 334 334 334 335 333 332 333 333 332 333 332 331 330 328 328 328 328 328 327 329 328 327 327 327 324 323 323 323 322 321 320 319 318 319 319 318 317 317 316 316 316 317 317 318 319 320 321 323 326 329 333
350 349 347 345 345 344 342 341 341 341 341 341 341 341 340 340 340 339 339 339 339 339 338 337 337 337 336 336 335 335 334 334 334 334 333 333 333 334 333 333 333 332 332 332 332 332 331 329 329 329 329 329 328 328 329 328 327 327 324 324 326 328 327 325 324 322 320 319 319 319 319 319 318 317 317 316 316 317 317 317 318 319 320 322 325
351 350 348 346 344 343 342 342 341 341 342 342 341 340 341 340 340 340 339 338 339 339 338 337 337 337 337 337 336 335 335 334 334 334 333 333 333 333 334 334 333 332 331 332 331 331 331 330 329 329 329 329 329 329 330 329 328 327 325 326 329 331 330 328 326 324 324 321 320 319 319 319 319 319 318 317 317 317 317 317 317 317 318 319 320
350 350 347 345 343 342 342 341 341 341 342 342 340 339 340 340 340 339 338 338 338 338 338 337 337 336 336 336 336 336 335 335 335 335 334 334 334 333 333 334 334 333 332 331 331 330 330 330 329 329 329 329 329 329 329 329 329 328 328 329 330 331 331 330 327 324 324 324 322 320 319 319 320 320 319 318 317 317 317 317 317 316 316 317 318
349 348 346 345 343 342 342 341 341 342 342 342 340 339 340 340 340 339 338 337 338 338 338 337 336 336 335 335 335 335 335 336 335 335 335 335 335 335 334 334 333 333 333 333 333 331 330 330 329 328 329 330 330 330 330 330 330 329 329 330 330 331 331 331 328 324 323 323 322 321 319 319 320 320 319 318 317 317 317 316 316 316 316 316 316
347 346 345 344 343 342 342 342 341 341 341 341 341 340 341 340 340 340 339 338 338 338 338 337 336 335 335 335 335 334 334 335 335 334 335 336 336 336 335 334 333 333 333 334 334 333 332 331 330 329 329 330 331 330 330 330 330 330 330 330 331 331 330 328 326 322 320 320 321 320 319 319 319 320 320 318 317 317 317 316 316 316 316 317 317
347 346 345 343 343 343 342 341 341 341 341 341 341 341 341 341 341 340 339 338 338 338 337 336 336 335 335 335 334 334 334 335 335 334 335 335 336 337 336 336 335 334 334 333 333 333 332 332 331 330 330 330 331 330 330 331 330 330 331 331 331 330 329 326 324 322 319 317 317 318 318 319 319 319 319 319 318 317 317 317 316 316 316 316 316
347 346 344 343 342 342 341 340 341 341 341 341 340 341 341 341 341 339 338 338 338 337 336 336 335 334 335 335 335 334 334 335 335 334 334 335 336 337 337 337 338 337 337 335 334 333 332 331 331 331 330 330 330 331 331 331 331 331 331 332 332 332 331 330 328 327 324 320 318 317 317 318 318 319 319 319 318 317 317 317 317 317 316 317 316
346 345 343 342 341 342 341 338 337 340 341 339 338 339 340 341 340 339 338 338 338 337 336 336 335 335 335 335 335 335 335 335 336 334 334 334 335 336 337 338 337 337 336 337 336 334 331 331 331 331 331 330 330 330 330 330 331 331 331 331 332 332 332 332 331 330 328 325 322 319 317 317 318 319 319 319 318 318 317 318 317 317 317 317 317
345 344 343 342 342 341 339 336 336 338 340 338 335 337 339 340 339 338 337 337 337 337 336 336 336 335 335 336 336 336 335 335 336 335 334 333 333 333 334 335 334 333 333 335 336 333 331 330 330 331 330 330 330 330 330 330 330 330 331 331 331 330 331 331 330 330 329 328 327 324 322 321 320 320 319 319 318 318 317 317 317 317 317 317 317
343 340 340 341 340 338 337 338 338 335 335 334 332 335 339 339 339 337 337 337 337 336 336 336 336 335 335 336 336 335 335 335 335 335 334 333 333 333 333 333 333 332 332 334 335 334 332 331 330 330 330 330 330 330 330 330 330 330 330 330 330 330 330 330 330 330 329 329 329 328 326 325 323 322 321 319 318 318 318 318 318 318 317 318 318
340 336 338 339 337 335 336 339 337 332 332 331 329 333 339 339 338 338 337 337 337 337 336 336 335 335 335 336 335 334 333 334 334 334 333 332 332 333 334 334 334 334 334 333 334 335 334 332 331 330 329 329 330 330 330 330 330 331 330 330 330 330 329 329 328 328 328 328 327 327 327 326 326 325 324 322 321 321 320 320 319 319 318 318 318
340 338 337 337 336 333 332 333 332 331 333 329 326 333 339 339 337 337 337 337 337 337 337 336 336 335 334 334 334 333 333 333 334 333 332 332 333 333 333 333 333 334 335 334 334 334 335 333 332 331 330 330 330 330 330 330 330 330 329 329 329 328 328 327 327 327 327 326 326 326 326 326 327 327 327 326 325 324 323 322 321 321 320 320 320
340 338 335 335 334 330 326 329 331 333 332 327 326 331 338 339 336 334 335 337 338 337 337 336 336 335 335 334 334 333 333 333 333 332 331 331 333 333 333 333 333 334 335 335 335 335 335 334 333 332 332 331 331 332 331 330 329 329 329 328 327 327 326 326 326 326 326 326 325 325 326 326 326 327 327 326 325 324 323 323 323 322 322 321 321
340 338 335 334 332 327 324 327 330 332 330 327 327 330 335 338 335 334 336 338 338 337 337 336 335 334 334 333 333 333 333 333 333 332 332 332 333 333 333 334 335 335 335 335 335 334 335 334 333 332 332 331 331 332 331 329 328 329 328 327 326 325 326 326 326 326 326 326 326 325 325 325 325 325 325 325 325 324 324 324 323 323 323 322 322
338 337 333 330 327 326 326 327 329 332 330 326 326 328 331 335 337 338 339 339 338 338 337 336 334 334 333 332 331 332 332 332 333 333 333 333 334 334 334 334 335 336 336 334 333 333 333 333 332 332 332 331 331 332 330 328 328 328 327 326 325 326 326 326 327 327 326 326 326 325 324 324 324 324 324 324 324 324 324 324 324 324 323 323 323
337 335 330 324 323 326 329 329 329 332 331 325 323 327 331 336 339 338 338 339 339 338 337 336 335 334 333 332 331 332 331 331 332 332 330 329 331 332 333 334 335 336 335 334 333 332 332 332 330 331 332 331 330 331 330 328 326 326 327 327 327 327 326 326 326 326 326 326 326 326 325 325 324 324 324 324 324 325 325 325 325 324 323 323 323
335 334 328 322 324 330 333 332 331 332 331 326 322 326 332 336 338 337 338 340 339 337 336 336 335 334 334 334 333 333 333 332 331 330 328 327 328 329 330 332 333 334 334 332 332 331 331 331 329 329 330 329 329 331 330 328 327 328 327 328 328 327 326 326 326 326 325 325 325 326 326 325 324 324 325 324 324 325 325 325 325 325 324 323 322
335 332 326 324 331 335 334 333 332 331 330 326 324 326 329 330 332 335 338 339 338 337 337 336 336 336 334 334 335 335 335 336 336 334 332 329 328 328 328 328 329 329 329 328 329 330 330 329 329 328 328 328 329 329 328 328 329 327 327 328 328 326 325 325 326 326 325 325 325 325 325 325 325 325 325 325 325 325 325 325 324 324 324 322 322
335 331 327 330 336 335 332 333 334 332 330 326 324 324 325 326 328 332 336 337 337 337 337 336 336 336 335 336 338 336 336 338 339 338 336 333 331 329 328 327 326 326 325 326 327 328 328 328 329 328 328 328 329 328 328 329 328 326 326 326 325 324 324 324 325 325 325 324 325 325 325 325 325 325 325 324 325 325 324 324 324 323 323 322 322
334 330 330 333 334 331 331 335 336 335 333 329 325 325 326 327 328 330 334 337 336 336 338 338 338 338 339 340 340 338 338 338 338 337 336 335 332 330 329 329 328 327 326 326 326 327 327 328 328 328 328 328 329 328 329 328 326 325 325 324 324 324 324 324 324 324 324 323 323 324 324 324 324 324 324 324 324 324 323 322 322 322 321 321 321
336 333 334 333 330 329 331 334 334 334 335 333 331 331 329 327 327 331 333 335 336 337 338 340 340 341 341 341 340 339 338 338 337 337 336 334 332 331 330 330 329 328 327 326 326 327 327 328 328 328 327 327 328 328 328 326 325 324 324 323 323 323 323 322 322 322 322 322 322 323 324 324 323 323 323 324 324 323 322 321 322 321 321 320 321
338 336 335 334 332 332 333 333 332 333 334 334 334 334 331 327 328 330 332 335 337 338 338 340 341 341 341 340 340 338 337 336 335 334 333 331 331 331 330 329 329 328 327 327 327 327 327 327 327 327 326 326 326 325 325 323 322 322 322 322 322 322 321 321 321 321 321 322 322 323 324 323 323 323 323 323 322 322 321 322 322 321 320 321 321
337 336 335 334 334 334 334 333 333 333 333 334 335 335 332 330 328 329 332 335 337 338 339 340 341 340 339 339 338 336 335 334 333 332 330 328 328 330 329 329 329 328 328 327 326 325 325 325 325 325 325 324 323 322 320 319 318 319 320 320 320 320 321 321 321 320 321 321 321 322 323 322 322 323 323 322 321 321 322 322 322 321 320 321 321
334 333 332 332 332 333 334 334 335 335 335 335 335 334 332 329 327 330 334 337 338 339 340 340 339 338 335 333 333 332 332 333 332 331 329 326 326 328 328 328 328 328 327 326 325 324 324 324 323 323 322 322 321 319 317 316 316 317 319 320 319 319 320 320 320 320 320 320 320 321 322 323 323 323 323 322 321 322 322 322 322 321 320 321 321
334 333 332 332 332 334 336 336 336 336 335 335 336 335 333 328 327 332 337 339 340 341 340 338 336 333 330 327 327 328 330 331 331 330 328 325 324 326 328 327 328 327 327 326 325 325 324 324 323 323 322 322 321 320 319 319 319 318 319 320 319 318 318 319 320 319 319 319 319 321 323 323 323 323 322 322 322 321 322 321 321 321 321 322 323
335 334 334 334 334 336 336 336 336 335 335 335 336 336 336 333 331 333 338 341 341 339 337 335 333 330 327 326 327 325 325 327 328 327 325 322 322 325 327 327 326 327 326 325 324 324 324 324 323 322 322 322 321 321 321 321 320 320 320 320 319 318 318 318 318 318 318 318 318 320 322 323 322 322 322 322 322 322 321 321 321 321 322 323 324
Wind_Speed
5 4 4 4 4 4 5 5 5 5 5 6 6 6 6 6 6 6 7 7 7 7 8 8 7 6 6 7 7 7 7 7 8 8 8 8 8 9 13 11 6 5 7 7 6 5 6 7 11 15 18 18 16 15 14 14 14 14 14 15 15 15 15 15 14 14 14 14 14 13 13 12 12 12 12 11 11 11 11 11 11 11 10 10 10
5 5 5 5 5 5 6 5 5 6 6 6 6 7 7 6 7 7 7 7 7 7 7 7 6 6 6 6 6 6 6 6 7 8 8 9 8 8 12 12 8 5 6 6 5 5 6 10 14 18 18 16 15 15 16 16 16 15 15 15 15 16 16 16 15 15 14 14 14 14 14 14 13 13 13 13 13 13 13 13 12 12 11 11 11
5 5 5 5 5 6 6 6 6 7 7 6 6 7 7 7 7 8 8 7 6 6 6 6 7 6 6 6 6 6 6 7 7 8 8 8 9 8 9 11 9 5 4 5 6 6 8 10 13 15 15 15 16 18 19 19 18 17 16 16 16 16 16 16 16 16 15 15 15 15 15 15 14 14 14 14 14 14 14 14 13 13 13 12 12
5 6 6 6 6 6 6 7 7 7 7 7 7 7 7 7 7 7 6 6 6 6 6 7 8 7 7 7 7 7 7 7 8 8 8 8 9 9 8 9 9 7 5 5 6 7 9 9 10 12 14 15 17 19 19 19 19 18 17 16 16 16 16 16 16 16 15 15 15 16 16 16 16 16 15 15 15 15 15 15 14 14 14 14 13
6 6 7 7 7 6 7 8 7 6 6 6 7 7 7 7 6 5 5 5 7 7 7 8 8 8 8 7 7 7 7 8 8 8 8 8 8 8 8 7 8 8 6 5 5 7 9 8 7 9 12 15 16 18 18 19 20 19 18 17 17 16 16 16 16 16 16 16 16 16 16 17 17 17 17 16 16 16 16 16 16 16 15 15 15
7 7 7 7 7 6 6 6 6 6 5 5 6 7 7 6 5 5 6 6 7 7 7 8 8 8 8 7 7 7 7 7 7 8 8 8 7 7 7 7 7 7 7 6 6 6 8 8 7 7 10 12 15 17 18 19 19 20 19 19 18 17 16 15 15 16 16 16 17 17 17 17 17 18 17 17 17 17 17 17 17 17 17 16 16
10 9 7 7 7 7 6 6 6 5 5 5 6 6 5 5 5 6 6 6 7 7 7 7 7 7 7 7 7 7 7 7 7 8 7 7 7 6 6 6 6 6 6 7 6 6 7 7 7 7 8 9 12 16 18 17 18 19 19 19 18 17 16 16 16 16 16 17 17 18 18 18 18 18 18 18 18 18 18 18 18 18 18 18 17
10 9 7 7 8 8 6 6 7 5 5 5 4 4 4 5 5 5 6 5 6 6 6 6 6 6 6 7 7 7 8 7 7 7 6 6 6 6 6 6 6 5 6 7 7 7 6 6 7 7 8 8 9 13 15 16 17 18 18 18 17 15 15 16 17 18 18 19 19 18 19 20 20 19 19 19 19 19 19 19 19 19 19 19 19
10 10 8 7 8 8 7 6 5 4 4 4 3 4 4 5 5 4 4 4 5 5 6 6 6 7 7 6 7 7 7 7 6 6 5 6 6 6 6 5 5 5 4 5 6 7 6 6 7 7 8 8 9 10 12 14 15 16 16 15 13 12 12 13 18 21 22 21 20 19 19 20 20 20 20 20 20 21 21 21 21 21 21 20 20
9 10 9 7 7 7 7 5 4 4 4 4 4 3 3 4 4 3 4 4 5 6 6 7 7 7 6 6 6 6 6 5 5 5 5 5 5 5 5 5 4 4 3 3 4 5 6 6 6 7 8 8 8 7 9 10 10 11 12 11 10 11 10 12 17 20 22 22 21 21 20 21 22 22 22 22 22 22 22 22 21 21 21 21 21
8 9 7 6 6 6 6 5 5 4 4 4 4 3 3 3 4 4 4 5 5 5 6 6 6 6 6 6 5 4 4 3 3 4 4 4 4 4 4 4 5 5 3 2 2 3 5 6 6 6 6 7 6 7 7 7 7 7 6 6 7 9 10 13 17 19 20 21 21 22 22 22 23 24 24 24 24 24 24 23 23 22 22 22 22
9 8 7 7 7 6 5 5 4 4 3 3 4 4 4 4 5 5 4 4 4 4 5 6 6 6 6 4 3 2 2 1 2 3 3 3 3 4 4 4 5 5 5 4 3 3 3 5 5 5 4 5 6 6 6 5 5 4 2 3 5 7 10 12 16 17 18 19 20 21 22 23 23 24 25 25 25 25 25 25 24 24 23 23 23
10 9 9 9 8 6 4 4 3 4 3 3 4 4 4 5 5 4 3 4 4 3 4 5 5 5 5 4 1 1 2 1 1 1 2 2 2 3 4 4 5 5 5 5 5 4 4 4 5 5 4 4 5 6 5 4 3 1 1 3 5 6 9 11 12 14 15 16 17 20 22 23 23 24 25 25 26 26 26 26 26 26 25 24 24
9 9 10 10 8 6 5 5 4 4 3 3 3 4 5 5 4 3 2 3 3 2 3 5 5 4 5 4 1 2 4 2 1 1 2 2 2 3 5 5 5 6 5 5 5 5 4 5 5 5 5 4 4 4 5 3 3 2 1 2 3 5 8 9 11 12 13 14 15 17 20 22 22 23 24 24 25 26 27 27 27 27 27 27 26
10 9 9 10 8 6 6 5 5 4 3 3 3 5 5 4 3 2 3 3 2 1 1 3 4 4 3 3 2 1 4 3 2 2 2 2 2 4 6 6 6 6 5 5 5 4 5 4 5 5 5 5 4 4 4 3 4 3 1 1 2 4 6 7 8 9 10 12 14 16 17 19 19 21 23 24 25 25 26 27 27 27 28 28 28
10 9 9 9 9 7 6 5 5 4 3 3 4 5 5 4 2 1 3 4 3 0 1 2 3 4 3 2 2 3 1 1 1 1 1 1 2 5 6 5 6 6 5 5 5 4 4 4 5 5 5 5 4 4 4 4 4 4 2 1 2 4 6 7 6 6 7 9 11 14 16 17 18 20 22 23 25 25 25 25 26 27 28 28 28
10 10 9 9 9 8 6 6 5 4 3 3 4 4 3 3 2 1 2 4 3 1 0 1 1 2 3 2 2 2 2 3 2 1 1 0 4 6 6 5 5 5 5 5 4 4 4 5 5 5 5 5 5 5 4 5 5 4 3 2 3 4 6 7 8 8 8 8 9 11 13 15 17 19 20 21 23 24 25 25 25 26 27 27 27
10 10 9 9 9 9 7 6 4 4 3 3 3 3 2 3 2 2 2 2 2 2 1 0 0 1 1 2 3 3 4 4 3 1 0 2 4 5 5 4 4 5 4 4 4 4 5 5 5 5 5 5 5 5 5 6 5 4 3 3 3 4 5 6 8 9 10 11 11 11 11 12 13 15 17 19 20 21 23 24 25 25 26 26 27
10 10 10 10 10 9 7 5 4 4 4 4 4 4 3 3 3 2 2 2 2 3 2 1 1 1 1 1 2 2 3 4 3 2 1 2 2 2 3 3 3 4 4 4 4 5 5 5 5 5 5 5 5 5 6 6 6 5 4 2 2 3 4 5 7 8 9 11 12 13 13 13 13 13 14 16 17 19 20 21 23 24 25 26 27
10 11 11 11 10 8 7 6 5 4 4 5 5 4 3 3 4 4 4 3 3 3 2 1 1 1 1 1 1 2 2 2 3 3 2 1 1 3 1 1 1 3 4 3 3 4 4 4 4 4 3 4 4 4 5 5 6 5 5 4 3 2 3 4 5 6 7 8 11 13 14 13 14 14 14 14 15 16 17 19 22 22 24 25 27
11 11 11 11 10 9 8 7 5 5 5 6 5 4 4 4 5 5 4 4 3 2 2 1 2 2 1 1 1 0 1 1 1 2 3 3 1 1 1 1 1 0 2 2 2 1 1 2 2 2 2 2 3 3 3 4 4 4 5 5 5 4 4 4 4 4 5 6 7 9 11 12 13 14 15 15 15 15 16 18 20 21 22 24 26
10 11 12 11 11 10 9 7 6 6 7 6 5 5 4 5 5 5 4 4 3 3 3 2 2 2 2 2 1 1 1 2 2 2 2 3 3 4 4 3 2 2 1 0 2 2 2 2 2 2 2 1 1 1 2 2 3 4 5 5 5 5 5 5 5 5 4 5 5 6 7 8 10 11 13 15 16 16 17 17 17 18 20 22 25
11 11 12 12 11 11 9 7 7 8 7 6 5 4 4 4 4 4 4 3 3 3 3 3 2 3 3 2 2 2 2 2 3 4 4 4 4 5 6 5 5 4 3 2 4 3 4 4 4 3 3 3 3 2 2 2 3 5 7 7 7 6 6 6 6 6 6 6 6 6 6 6 7 8 9 11 13 15 17 18 18 19 19 22 23
12 11 12 12 12 12 9 8 8 8 7 6 5 4 3 3 3 3 3 3 3 3 3 3 3 3 3 3 3 3 3 3 3 4 4 5 5 6 7 7 6 6 5 5 5 5 5 6 6 5 4 4 4 4 4 4 5 7 9 10 10 9 9 9 9 9 8 7 7 7 7 7 7 7 7 8 8 10 13 16 18 20 22 23 23
13 12 13 13 13 12 9 9 9 8 7 7 5 3 2 3 3 3 3 3 3 3 3 4 4 4 4 4 4 4 4 4 5 5 5 5 6 6 8 8 8 8 8 8 7 6 7 7 6 6 5 6 6 6 6 6 7 10 12 12 13 13 11 11 11 12 11 10 10 9 8 8 8 8 8 8 8 8 9 11 14 17 21 23 23
14 13 14 14 13 12 10 10 10 9 8 7 6 4 3 3 3 3 3 3 3 3 3 3 4 4 5 5 5 5 5 5 5 6 7 7 7 7 8 9 9 10 10 10 9 8 8 6 5 6 6 6 7 7 8 8 8 12 14 13 13 13 14 15 14 14 14 13 13 12 11 11 10 9 9 8 8 9 10 11 12 14 17 20 23
14 14 14 14 13 11 10 10 10 9 8 8 7 6 5 5 4 4 4 4 4 4 3 4 4 5 5 6 6 6 6 6 6 7 7 8 8 8 8 7 8 9 9 10 10 9 9 8 7 7 7 7 8 8 9 10 10 13 15 13 11 12 15 18 19 17 17 16 16 15 14 13 13 12 12 11 10 10 11 12 12 13 15 18 20
13 14 15 14 13 12 11 11 10 10 9 8 8 7 6 6 6 5 5 5 5 5 5 5 6 6 7 7 7 8 7 7 7 7 8 8 8 9 8 8 7 7 8 9 9 9 10 9 9 8 8 9 9 9 10 12 12 12 14 13 12 14 16 19 21 20 19 19 18 17 16 15 15 15 14 13 13 12 13 13 13 14 15 17 19
14 15 15 14 13 13 12 11 11 10 10 10 9 8 7 7 7 6 6 6 6 6 6 6 7 7 8 8 9 9 8 8 8 8 8 9 9 9 10 10 9 8 7 7 8 9 10 10 10 9 9 10 11 11 12 13 13 14 15 16 16 17 17 19 22 23 22 21 20 19 18 17 17 17 16 16 15 15 14 14 14 14 15 16 18
15 14 14 14 14 13 12 11 11 11 11 11 10 8 8 8 7 7 7 7 7 7 7 8 8 8 8 9 9 9 9 9 9 9 9 9 10 10 11 11 11 10 9 9 8 10 10 10 11 11 11 11 13 14 14 15 16 16 17 18 18 18 19 22 24 24 22 21 20 19 19 18 18 19 18 18 17 17 16 15 15 15 15 16 18
15 15 15 15 14 14 12 11 10 11 12 11 9 9 9 8 8 7 7 8 8 8 8 8 8 8 8 9 9 9 9 9 9 9 10 10 11 11 11 12 12 12 12 11 9 11 12 11 12 14 13 13 15 16 16 16 16 17 18 19 19 19 21 23 23 22 21 19 18 19 19 19 20 20 20 20 19 18 18 17 17 16 16 17 18
17 17 16 15 15 15 14 13 11 12 12 11 11 10 10 10 10 9 8 8 9 9 8 8 8 8 9 9 10 10 9 9 10 10 10 10 11 12 12 13 13 12 13 12 11 13 17 16 14 15 15 15 16 16 17 17 17 17 18 19 19 20 20 20 20 20 21 21 20 19 19 20 21 21 21 22 21 21 20 19 18 18 18 18 19
20 18 17 17 17 17 17 17 17 16 15 15 14 13 12 12 11 10 9 9 9 9 9 10 10 10 10 11 12 11 11 11 12 12 11 11 11 12 12 13 14 13 12 13 13 14 17 18 16 16 16 16 16 16 17 18 18 17 17 17 18 19 20 19 18 19 20 21 22 22 21 21 21 22 23 23 23 23 23 22 21 20 20 20 21
20 19 19 20 21 21 21 20 21 22 20 18 17 15 14 14 13 11 10 10 10 11 11 11 12 12 12 13 13 13 12 12 13 12 12 12 12 13 13 13 15 15 14 14 15 14 16 17 18 18 17 17 16 16 16 18 18 17 17 17 18 18 18 19 18 18 19 21 23 24 25 24 24 24 24 24 25 25 26 25 24 24 23 23 24
22 24 23 24 25 25 22 21 24 25 23 20 18 17 17 16 14 13 11 11 12 12 12 13 13 13 13 14 14 13 12 12 12 12 12 13 13 13 14 14 15 16 15 15 15 16 16 16 17 18 18 18 18 17 17 17 17 17 18 18 18 18 18 18 18 19 19 21 23 25 27 27 27 26 25 25 26 27 28 28 27 27 27 27 28
26 28 26 26 28 27 24 24 26 27 24 23 21 19 18 17 16 14 13 13 13 14 14 14 14 14 14 14 13 13 12 12 12 12 12 13 13 14 14 14 15 16 16 15 15 16 17 17 17 17 18 19 19 19 18 18 17 17 17 17 17 17 17 17 18 19 20 22 24 26 27 27 27 27 27 27 27 28 29 30 31 31 31 32 32
28 29 28 28 30 29 28 27 28 28 26 25 24 20 18 18 17 16 15 15 15 15 14 15 15 15 14 14 13 12 12 12 12 12 12 12 13 14 14 14 14 15 15 16 16 15 17 18 18 18 18 19 19 20 19 18 17 17 16 16 16 16 16 17 18 19 21 22 24 25 26 27 28 29 29 28 28 30 31 32 32 33 34 34 34
29 30 30 32 33 32 31 30 29 29 27 26 25 22 18 18 19 19 17 16 15 15 15 15 16 16 15 15 14 13 13 13 12 12 12 12 13 14 14 14 15 15 15 15 14 14 16 18 19 19 18 18 18 19 18 17 17 17 17 17 17 17 17 17 18 19 20 22 23 24 25 26 27 28 29 31 32 33 32 33 34 35 35 36 36
31 30 30 34 35 34 34 32 31 30 28 26 25 22 20 20 21 20 17 16 16 15 16 16 16 16 16 15 14 14 14 13 13 13 13 13 14 14 15 14 14 15 15 15 14 15 16 18 19 18 17 17 18 19 19 19 18 17 17 17 18 18 18 18 19 21 22 22 23 25 27 28 29 29 30 32 33 33 33 34 36 36 37 38 40
33 32 35 39 38 37 36 33 31 30 29 27 25 24 23 22 20 18 16 16 16 16 16 16 16 17 16 15 15 15 15 15 15 15 14 14 14 14 15 15 15 16 17 17 17 17 17 17 18 18 16 17 19 19 19 19 18 17 16 17 19 20 20 20 20 21 23 24 24 26 28 28 28 29 30 31 32 32 33 36 38 38 39 40 42
35 35 38 40 38 38 37 33 31 31 30 29 28 25 23 20 18 18 18 17 17 17 16 16 17 17 16 16 16 16 16 17 18 19 18 17 17 17 16 15 16 17 18 18 18 19 19 18 18 18 16 17 18 17 17 18 18 18 17 17 18 19 20 22 22 22 22 23 24 26 27 27 28 29 30 31 32 32 34 35 36 36 36 37 39
40 40 40 40 39 37 33 29 29 30 29 29 28 25 23 19 17 17 18 17 17 16 16 16 17 16 16 16 16 17 19 20 22 23 22 20 20 19 18 17 17 18 18 18 18 18 20 20 20 19 18 18 17 16 17 18 18 17 17 16 17 18 20 22 22 21 20 22 24 26 27 28 30 31 31 31 32 33 33 33 33 34 36 38 40
43 41 41 39 33 28 26 26 27 28 29 28 26 26 26 23 19 18 17 16 15 15 16 17 16 16 16 16 16 17 18 19 19 19 19 20 20 20 19 18 18 18 18 18 18 18 19 20 20 19 18 19 18 18 19 19 17 17 16 16 18 19 21 20 19 19 20 22 25 27 30 30 30 32 32 31 32 32 31 33 36 39 41 44 45
44 41 38 34 27 24 25 24 24 25 27 26 24 26 27 24 21 21 18 16 15 14 15 16 16 15 15 14 15 16 16 16 15 14 14 17 18 19 18 17 16 17 18 18 18 17 18 17 18 18 18 18 19 19 18 17 18 19 18 18 20 21 22 21 21 22 22 23 26 30 33 31 28 31 33 32 31 32 33 35 38 40 43 46 46
41 41 33 27 25 26 24 20 19 19 20 22 25 27 26 22 21 21 19 16 15 14 15 15 15 15 14 13 13 14 13 14 14 13 12 14 16 16 17 16 17 17 17 17 17 17 17 16 17 18 17 17 18 18 16 16 19 20 20 21 22 22 23 23 24 26 26 25 27 31 33 30 26 29 33 31 30 33 36 38 39 41 44 46 46
33 34 27 21 22 23 22 20 20 18 16 18 24 26 25 22 20 21 20 18 16 15 15 15 14 14 13 12 12 12 12 11 12 11 11 12 13 14 15 16 17 16 16 17 17 17 16 16 17 18 18 17 18 18 17 17 20 21 20 20 20 20 22 24 26 28 27 26 27 28 29 29 27 29 32 31 32 37 40 41 42 43 45 47 48
24 23 20 19 19 20 20 19 19 19 18 20 23 24 23 22 21 22 21 19 17 16 16 15 14 13 12 11 11 11 11 11 11 13 12 11 11 12 14 15 15 15 15 15 15 15 15 15 16 17 18 17 17 18 19 18 19 19 17 17 18 18 20 23 24 25 25 25 26 26 26 29 29 30 32 34 36 40 41 40 41 43 46 48 50
22 17 16 17 18 17 18 18 18 19 20 21 22 22 22 22 22 23 21 19 17 16 15 13 12 10 9 8 7 9 10 11 13 16 15 12 11 12 14 14 15 14 14 14 15 15 15 14 15 16 18 19 19 19 18 17 17 16 15 15 16 17 18 20 22 23 22 21 23 25 28 30 30 30 33 36 39 41 40 38 40 43 46 48 49
23 18 17 17 17 17 17 18 20 21 21 20 19 20 20 21 22 22 19 17 16 16 13 10 9 9 8 7 8 9 10 12 15 17 16 14 12 12 13 14 14 14 14 14 15 15 14 14 16 17 18 19 19 19 17 15 16 15 13 14 15 15 16 17 18 21 22 21 22 25 28 30 28 29 33 36 38 39 37 38 41 43 45 47 47
22 19 19 17 17 18 20 22 23 23 22 19 18 19 19 20 22 21 17 16 15 13 9 7 7 8 9 11 13 12 12 14 16 17 16 15 13 12 12 13 13 14 13 12 12 12 13 15 17 18 19 19 20 20 18 17 16 15 14 15 15 17 18 18 18 22 25 24 23 23 25 27 28 30 31 32 34 36 34 35 40 41 41 41 42
19 19 19 18 19 21 23 24 23 22 20 17 16 17 18 20 21 19 15 14 11 8 6 5 6 8 10 14 16 16 16 16 17 17 16 15 13 11 11 12 12 12 11 11 12 12 14 15 17 18 19 19 19 20 20 19 18 16 15 16 17 18 20 22 22 22 20 20 21 20 21 27 30 31 29 23 21 26 29 29 35 38 38 37 38
Wind_Direction
250 257 265 268 276 279 281 285 291 294 293 296 298 302 306 303 302 301 299 299 299 297 293 289 291 293 294 298 302 301 295 286 281 278 278 280 279 280 286 292 287 262 252 237 221 215 212 208 214 222 227 228 221 208 207 218 222 221 221 222 223 221 221 224 224 222 220 219 220 220 220 221 223 225 228 231 233 236 239 242 244 246 246 246 249
259 265 270 273 276 275 280 284 287 286 287 296 299 301 306 306 305 304 303 303 301 299 295 293 295 298 299 303 307 305 296 289 285 281 281 282 280 278 283 290 291 269 246 235 215 196 211 215 218 224 228 231 226 213 210 215 219 219 220 221 223 223 224 225 226 227 226 226 226 226 226 227 228 229 231 232 234 238 242 245 247 250 251 251 252
264 267 269 272 272 273 283 288 287 289 299 309 300 298 302 303 303 303 303 300 299 300 300 302 304 307 306 306 309 305 299 292 289 286 285 284 281 278 280 286 290 279 242 227 206 191 212 221 224 229 229 230 227 220 215 215 218 218 218 220 221 224 225 225 227 228 229 231 231 232 232 232 233 234 236 236 236 238 241 245 248 251 254 255 256
262 265 267 270 272 275 282 284 285 285 291 293 288 292 295 298 299 298 301 298 302 306 307 309 310 313 311 309 308 303 298 293 292 291 289 286 284 282 279 281 286 284 257 226 208 197 212 224 226 228 229 226 225 226 222 218 219 220 221 221 221 223 224 226 228 228 230 232 234 235 236 237 237 238 240 242 242 241 242 244 247 250 253 255 257
259 263 265 268 271 274 277 278 279 274 273 277 282 291 292 295 294 292 301 303 308 314 314 314 313 317 314 310 307 301 299 297 296 297 296 292 287 286 283 278 278 281 270 235 216 201 206 216 222 225 229 227 225 226 227 225 222 222 224 224 223 224 225 228 230 230 231 233 237 238 239 240 241 242 242 244 246 246 245 245 246 248 251 253 255
252 257 260 267 272 276 276 271 267 265 269 274 281 289 286 286 290 298 309 309 315 322 321 317 316 316 313 310 305 301 300 299 300 301 302 299 294 290 289 284 274 271 265 246 231 217 209 211 218 224 227 229 227 225 226 229 228 226 228 228 227 227 227 230 232 233 232 235 239 239 242 243 243 245 244 244 245 247 249 248 248 249 250 252 253
253 256 258 268 275 277 275 265 264 268 272 271 275 280 276 284 299 310 316 318 322 324 320 318 316 314 312 308 304 303 302 302 304 305 306 305 303 301 298 295 286 269 256 248 241 231 219 212 216 222 225 229 228 227 228 230 233 235 235 234 233 233 234 237 239 240 238 237 239 240 243 244 245 246 247 247 247 247 249 250 250 251 252 253 254
259 265 263 265 272 276 276 269 271 272 269 265 264 267 273 293 310 318 322 324 319 317 317 316 316 315 311 306 306 308 306 307 308 309 316 316 313 314 312 310 306 288 259 244 238 236 232 220 219 224 225 226 225 226 229 232 236 240 242 242 240 239 241 245 247 249 247 243 239 238 242 244 245 246 248 249 249 249 250 250 251 252 253 254 254
263 269 262 257 263 271 273 269 268 260 253 250 254 268 290 307 315 317 317 315 310 311 316 317 319 317 314 312 312 309 308 313 314 316 321 319 320 323 324 325 325 312 275 242 233 239 244 231 223 227 229 229 228 227 230 233 237 240 245 249 249 247 246 247 246 245 247 248 245 241 241 244 246 247 248 248 249 251 251 251 252 253 253 254 254
263 264 261 259 261 261 262 257 248 235 229 240 261 279 299 306 303 295 297 304 306 312 317 320 321 317 316 317 315 310 310 313 314 317 319 320 329 334 340 349 349 341 314 262 237 238 246 242 234 232 234 233 228 230 238 241 243 244 249 255 259 256 249 248 248 244 245 249 251 247 245 247 248 248 249 247 246 247 249 251 251 253 254 254 255
256 262 262 261 256 245 241 233 224 220 224 248 266 269 270 277 284 286 296 303 309 318 320 320 319 316 315 316 313 303 299 306 309 313 317 331 345 344 357 15 15 10 359 324 275 248 245 247 244 240 243 245 237 238 245 248 252 253 255 260 262 253 239 240 247 247 246 247 249 249 248 248 248 250 250 249 248 246 247 248 250 252 253 254 255
256 260 251 245 240 225 214 209 215 223 229 250 263 271 275 274 280 290 306 311 315 325 330 328 321 315 310 301 295 277 254 292 307 310 321 342 357 356 5 21 29 25 20 11 344 315 284 273 270 266 263 262 258 256 259 268 276 271 250 245 247 238 230 234 241 246 248 250 250 249 248 248 249 251 252 251 250 249 249 249 249 250 251 254 255
261 252 235 229 223 208 194 195 212 225 230 250 273 289 289 283 285 294 310 313 314 324 338 328 312 314 317 296 248 189 186 191 284 313 329 348 6 11 13 18 27 26 26 24 12 5 348 326 317 309 310 299 287 287 294 312 335 347 222 235 241 235 236 241 243 245 248 251 252 250 248 249 250 252 253 253 251 251 251 250 249 250 251 253 255
255 238 222 217 210 193 189 196 209 221 232 260 286 292 283 279 286 292 297 296 299 317 332 316 309 336 329 298 249 174 185 204 294 318 336 351 15 29 24 20 27 21 15 19 15 15 10 360 356 350 351 344 327 325 327 344 28 30 312 259 252 244 244 248 246 246 248 253 256 253 251 251 252 254 256 255 252 251 251 251 250 250 251 252 253
234 220 210 209 204 194 198 205 215 222 229 266 288 282 268 260 265 287 294 275 266 297 333 317 328 343 311 290 315 237 186 194 267 299 355 352 14 39 30 22 30 26 12 12 10 10 13 10 11 7 7 5 358 359 1 14 34 35 17 288 249 240 243 250 252 252 255 259 260 258 258 257 256 255 256 256 254 252 250 250 250 251 251 251 251
223 216 210 209 205 201 206 214 224 224 227 276 283 266 249 230 214 245 280 275 269 288 24 335 341 336 309 294 290 267 194 134 283 289 259 254 45 45 39 34 36 34 26 21 13 12 18 19 19 14 10 13 12 15 30 37 39 53 63 259 225 215 223 235 243 248 254 260 263 263 263 262 259 258 257 257 256 254 252 252 252 252 251 250 250
220 217 214 210 207 207 212 222 228 225 236 279 274 252 237 214 191 190 253 286 303 319 360 336 346 338 325 315 276 267 8 6 344 330 283 12 72 58 48 50 47 43 41 37 32 28 29 29 30 28 21 19 22 26 36 38 44 60 44 316 254 227 223 225 227 229 233 242 253 261 265 265 264 263 262 261 258 255 254 254 254 254 253 252 251
220 221 216 208 208 211 216 221 223 227 248 263 244 232 219 193 180 187 222 271 304 304 301 333 329 326 333 332 326 343 356 332 320 4 50 85 94 85 65 59 59 59 54 51 54 50 43 42 42 43 41 38 37 45 50 50 59 60 28 326 282 264 250 243 237 233 234 235 240 247 253 259 263 266 267 265 262 259 257 256 256 256 255 253 252
219 222 216 208 209 215 217 214 216 231 242 227 214 212 203 188 181 194 212 222 258 283 304 338 323 348 15 348 345 360 358 338 332 353 106 123 123 123 102 98 97 83 70 58 58 58 51 45 46 48 53 56 54 58 62 65 72 61 26 1 321 292 276 271 261 251 247 244 245 248 248 249 254 260 264 266 266 264 262 261 260 258 256 253 252
220 219 215 212 214 217 211 203 212 227 219 207 204 198 192 187 186 193 205 212 232 268 299 323 302 331 10 331 8 32 11 6 353 327 315 319 168 177 151 72 94 91 83 74 55 51 46 35 33 34 41 55 59 63 64 66 74 64 37 33 29 354 324 306 293 281 271 260 255 256 257 254 252 254 259 263 268 269 266 263 259 257 257 258 256
222 221 218 216 215 212 203 199 213 218 206 202 198 193 192 190 190 193 203 213 223 243 249 266 285 299 317 288 320 16 326 335 300 297 311 309 280 233 295 297 261 341 81 91 70 41 22 7 355 355 8 35 45 53 53 54 65 59 37 38 44 35 24 7 342 324 307 292 276 269 269 267 261 257 257 260 263 267 267 265 261 258 258 260 259
225 223 220 214 209 210 205 204 213 209 202 201 196 194 196 194 195 197 206 220 225 232 239 243 270 288 279 265 283 276 279 288 269 278 303 291 291 294 287 275 276 282 242 34 356 285 251 272 281 291 306 314 340 15 28 28 31 20 8 14 27 27 22 19 11 360 348 333 318 301 290 284 277 268 263 262 262 263 263 264 266 264 262 260 258
224 222 218 209 205 213 213 211 211 203 200 201 200 203 202 194 192 196 202 217 232 240 248 253 262 277 279 274 282 286 293 298 296 309 307 294 295 294 294 307 312 294 257 283 309 272 250 260 255 254 270 280 284 295 326 330 319 333 343 343 340 340 339 341 346 347 347 346 343 339 326 312 303 293 283 275 268 264 262 262 265 265 265 263 259
219 218 215 207 206 213 215 213 208 202 202 202 202 210 213 199 193 203 208 216 237 249 253 260 268 276 284 283 279 281 280 275 283 289 286 293 306 301 300 307 303 296 293 291 286 261 250 260 252 242 254 270 270 268 295 309 290 301 324 329 321 317 314 314 317 317 319 322 327 336 339 336 331 324 319 309 295 282 271 266 265 264 265 266 264
215 213 213 208 207 210 210 209 205 202 204 201 202 211 221 225 219 224 226 225 232 243 254 264 270 274 282 284 278 275 267 261 266 269 265 271 281 286 296 303 299 300 303 298 294 282 264 256 242 236 247 262 265 258 273 297 292 289 303 314 311 307 305 306 308 305 304 304 304 307 314 324 331 333 334 334 327 317 302 287 277 270 266 266 265
213 208 208 205 205 207 208 208 204 202 203 202 207 217 224 229 231 233 231 229 230 234 251 265 270 273 277 278 278 275 270 266 263 265 269 271 275 284 295 298 294 296 298 296 296 291 279 268 245 241 246 253 261 258 262 282 291 288 297 308 305 298 299 303 304 300 297 296 296 296 296 299 305 314 320 327 330 329 323 312 300 288 278 271 268
211 203 201 200 202 207 209 209 206 204 206 206 210 218 225 226 228 234 234 231 231 233 244 257 263 266 267 269 273 273 272 273 271 268 275 280 282 287 289 290 292 295 297 296 293 289 287 286 271 258 255 258 265 264 263 276 286 290 299 305 297 289 293 297 301 300 295 291 290 291 291 291 291 294 300 306 312 320 322 319 310 300 291 283 277
205 200 198 199 202 206 208 209 207 205 206 208 212 220 225 226 226 231 235 234 232 236 243 250 256 262 265 265 266 271 273 274 275 273 274 278 277 278 279 280 287 294 296 296 295 293 291 288 281 271 264 262 266 270 269 275 282 289 295 295 287 285 286 287 294 300 297 290 285 284 285 288 288 288 289 293 299 307 315 317 313 304 295 289 284
201 199 199 199 202 205 206 206 205 205 204 204 211 222 226 227 229 231 235 238 238 242 246 251 254 258 263 266 267 271 275 273 275 277 277 277 276 276 275 274 280 290 297 297 294 294 294 291 288 288 279 267 266 273 276 276 279 281 284 287 285 283 280 280 289 297 296 289 283 279 279 283 286 286 285 287 293 301 308 314 315 309 301 292 287
200 199 198 198 201 202 203 204 205 205 203 200 206 218 225 228 231 232 233 238 243 247 249 251 255 257 259 264 268 272 275 276 277 279 276 273 271 271 271 271 273 277 284 293 294 290 290 288 288 291 290 281 277 280 280 280 280 278 279 283 283 280 279 282 288 293 291 286 281 276 274 278 283 285 283 283 288 296 305 311 314 313 308 301 294
197 195 195 196 198 199 202 205 205 205 203 203 205 210 218 224 228 230 230 233 241 246 250 252 253 256 257 261 266 270 274 278 278 278 273 269 268 267 266 267 267 266 271 279 286 288 289 290 291 293 293 287 286 286 285 283 283 281 279 279 279 279 281 285 290 292 290 288 285 279 275 276 280 283 282 280 283 290 298 304 309 312 312 310 305
195 194 195 195 197 199 199 198 198 202 203 206 207 204 211 221 222 225 227 230 239 245 251 255 256 257 260 262 265 267 269 272 273 274 272 269 267 265 264 264 263 261 262 264 270 281 288 291 292 292 291 289 287 286 286 286 285 284 280 275 276 278 279 281 284 285 287 291 290 286 280 277 278 280 281 280 281 286 292 295 300 305 308 310 310
196 192 191 195 200 201 198 194 195 198 200 206 209 203 208 220 220 220 225 230 240 247 251 257 260 262 264 263 264 266 268 268 268 269 270 270 269 266 263 261 261 260 257 257 261 272 284 290 292 291 291 292 289 285 286 287 286 286 282 275 275 276 277 278 279 279 282 286 289 289 287 282 280 280 281 280 280 284 289 290 293 296 299 303 306
194 189 189 195 202 204 202 200 197 197 200 206 210 207 208 217 219 217 222 229 239 247 252 257 262 264 265 263 264 266 266 265 265 267 268 268 269 268 265 263 265 265 259 255 257 265 276 283 288 291 294 293 290 289 289 288 286 285 282 279 279 278 278 280 281 281 280 281 283 286 287 286 284 282 280 279 280 284 288 288 289 292 294 297 300
195 197 197 199 205 207 206 205 203 201 202 204 209 213 213 214 215 216 220 227 238 246 252 258 261 264 265 262 262 262 260 260 261 264 267 268 270 269 268 267 267 269 265 258 257 263 270 274 278 285 291 293 292 291 289 287 285 282 281 282 283 282 283 283 283 283 282 282 282 283 286 289 288 286 282 280 281 285 288 289 289 289 291 293 295
201 204 202 204 208 207 206 209 209 207 203 199 202 212 220 219 216 217 221 228 238 246 253 260 261 261 261 259 258 257 255 256 257 260 265 267 269 269 269 271 270 271 270 265 261 260 265 270 269 270 278 283 286 287 286 286 284 282 283 285 283 283 285 285 285 285 284 284 285 287 291 293 293 292 289 286 286 287 288 289 290 289 289 290 292
199 201 202 205 207 208 210 212 213 210 205 199 197 205 220 226 222 222 225 231 239 246 253 259 258 256 254 253 253 252 252 253 254 260 267 270 272 274 275 277 275 274 273 271 269 263 263 269 270 272 277 277 278 280 281 282 283 284 284 284 282 283 284 285 285 286 286 287 289 292 295 295 294 293 292 290 288 287 287 289 290 289 288 286 288
197 200 203 205 206 209 211 211 212 211 207 202 200 204 216 228 231 233 234 234 240 247 253 257 254 250 248 247 248 249 248 251 255 263 271 275 276 279 282 284 282 279 276 273 271 265 262 267 271 274 277 276 277 277 275 278 283 285 286 286 284 284 285 286 285 285 287 287 289 290 291 290 288 287 287 286 285 285 287 288 288 288 286 285 286
197 199 200 204 207 211 211 207 207 210 208 207 205 208 219 233 239 240 238 237 242 249 254 255 250 246 246 246 249 250 248 251 258 265 272 275 277 280 283 285 283 280 277 274 273 270 267 269 272 274 275 277 278 276 276 281 280 276 281 287 290 290 290 288 287 287 288 287 287 288 287 285 284 284 285 285 286 285 285 285 284 284 285 285 285
198 197 200 205 207 210 211 206 203 206 208 210 210 212 222 234 238 238 238 239 245 252 254 252 247 245 247 249 251 252 252 255 258 262 269 272 275 279 282 283 282 279 279 279 280 278 274 272 276 280 279 279 279 277 279 283 279 275 281 290 294 294 293 291 289 290 290 289 287 286 286 286 286 287 287 287 286 285 284 282 281 281 283 284 284
201 200 204 207 206 208 211 208 205 206 208 212 215 217 223 229 232 237 242 243 245 250 251 247 244 244 246 250 253 255 256 257 257 260 267 270 271 274 277 280 280 279 280 283 284 284 282 279 282 285 282 280 279 277 280 285 287 289 293 293 292 293 294 293 291 290 292 290 286 283 284 285 287 287 286 284 283 283 281 278 277 279 283 286 285
204 205 207 208 207 206 207 208 208 209 210 213 217 221 226 230 231 238 245 244 244 246 245 243 243 243 244 248 253 257 259 260 262 264 269 270 269 271 274 277 278 277 280 284 285 286 287 288 290 290 287 285 284 282 286 292 295 296 297 294 291 294 297 295 293 292 292 290 287 285 283 284 286 285 282 280 281 280 277 276 277 279 282 285 285
207 208 208 208 204 198 200 207 213 215 215 216 219 225 233 239 242 245 247 245 244 245 243 242 242 243 246 249 255 261 264 264 265 268 270 270 271 276 280 279 276 272 274 278 281 284 287 290 291 291 289 288 288 288 292 294 295 298 301 297 294 297 298 296 295 295 294 293 292 289 286 284 282 280 279 279 279 277 275 277 280 280 281 284 284
208 207 207 205 198 191 197 208 215 218 220 220 223 231 238 244 249 253 251 245 245 246 242 241 242 243 249 253 258 267 269 264 262 264 266 269 276 283 284 280 274 269 269 271 273 276 281 286 287 287 287 288 289 291 294 297 299 302 302 297 296 298 297 295 294 294 295 297 295 289 286 284 281 281 281 281 280 278 278 281 282 282 283 285 284
208 206 202 200 196 195 200 208 214 219 222 225 231 238 242 246 251 255 251 241 242 246 242 241 242 244 251 256 260 267 267 262 262 262 261 268 276 280 280 279 279 276 276 276 273 271 275 279 281 282 285 287 290 293 298 301 302 302 301 300 299 298 296 294 292 291 292 295 292 288 285 285 284 284 284 283 281 282 284 285 285 284 285 285 284
206 201 194 190 192 199 207 213 219 223 225 231 238 242 245 248 250 253 249 239 239 245 243 244 247 249 252 255 258 263 263 262 265 263 264 272 277 277 276 277 279 279 280 280 275 270 268 268 271 277 283 286 288 292 297 301 300 300 300 299 297 294 292 290 288 288 289 288 284 281 281 285 287 285 283 283 284 286 288 288 286 285 286 285 283
200 191 186 186 190 201 210 215 222 226 227 232 239 243 246 249 249 253 251 241 238 243 245 248 252 253 253 252 252 259 264 268 268 263 265 274 278 279 278 278 280 282 282 279 273 267 265 265 270 278 284 286 288 292 296 298 297 295 293 290 286 284 284 283 284 285 286 285 282 278 279 285 288 286 284 286 289 290 290 287 285 287 289 288 285
193 185 186 190 193 202 210 216 223 228 230 233 236 241 248 250 249 252 251 241 238 245 248 249 251 252 254 256 260 269 272 273 270 267 269 274 275 277 279 279 282 283 283 282 278 275 276 277 279 283 285 286 287 289 292 294 294 292 288 284 281 278 278 282 287 289 288 288 287 283 284 288 290 288 288 292 294 292 289 287 286 288 291 289 285
192 191 193 198 204 210 214 218 224 231 234 234 234 242 250 250 247 247 242 233 236 243 242 242 243 241 249 263 275 282 280 274 269 268 273 278 276 276 277 279 282 283 283 284 284 285 288 290 291 293 294 293 292 292 294 296 297 293 280 275 280 283 284 288 293 294 294 293 290 287 287 288 290 290 293 296 295 290 288 289 289 290 292 291 286
191 194 197 202 212 219 221 223 226 233 235 233 235 246 253 250 245 239 230 227 233 235 225 218 226 235 253 269 276 277 272 268 267 267 272 276 274 273 274 278 280 282 284 286 286 287 291 294 298 300 299 298 297 297 296 295 296 288 268 265 282 293 292 293 295 297 297 294 290 291 290 289 292 295 297 299 296 288 284 287 291 293 293 291 287
186 194 199 205 215 223 228 229 230 232 234 234 238 246 251 248 241 230 222 223 221 206 192 202 229 251 267 275 278 272 262 259 262 265 270 272 269 267 271 276 278 278 284 289 289 289 289 291 295 297 297 296 294 293 292 291 290 281 265 267 284 293 293 294 296 298 297 292 293 296 293 291 294 296 298 302 299 291 287 289 293 294 292 290 287